Regional Weather Roundup
Issued by NWS Albany, NY

Home | Current Version | Previous Version | Text Only | Print | Product List | Glossary On
Versions: 1 2 3 4 5 6 7 8 9 10 11 12 13 14 15 16 17 18 19 20 21 22 23 24 25 26 27 28 29 30 31 32 33 34 35 36 37 38 39 40 41 42 43 44 45 46 47 48 49 50
000
ASUS41 KALY 231410
RWRALY

NEW YORK STATE HOURLY WEATHER ROUNDUP
NATIONAL WEATHER SERVICE ALBANY NY
1000 AM EDT WED AUG 23 2017

NOTE: "FAIR" INDICATES FEW OR NO CLOUDS BELOW 12,000 FEET WITH NO
SIGNIFICANT WEATHER AND/OR NO OBSTRUCTIONS TO VISIBILITY.

NYZ032-033-038>043-046>054-057>066-NYZ062>081-082-084-231500-
EAST


CITY           SKY/WX    TMP DP  RH WIND       PRES   REMARKS
ALBANY         PTSUNNY   70  55  59 NW15G22   29.84R
GLENS FALLS    MOSUNNY   69  53  56 SW7       29.80S
POUGHKEEPSIE   MOSUNNY   73  54  51 NW13      29.83R
NEWBURGH       MOSUNNY   72  57  60 NW12G17   29.86R
MONTGOMERY     MOSUNNY   72  56  57 N9        29.85R
WHITE PLAINS   MOSUNNY   75  62  64 NW7       29.82R
ISLIP          CLOUDY    76  68  76 W8        29.81R
NEW YORK CITY  PTSUNNY   76  58  53 NW14      29.82R
CENTRAL PARK   MOSUNNY   73  54  51 VRB3      29.86R
$$

NYZ005>009-017-018-044>046-055-056-231500-
CENTRAL


CITY           SKY/WX    TMP DP  RH WIND       PRES   REMARKS
FULTON         PTSUNNY   68  58  70 W12       29.85R
SYRACUSE       MOSUNNY   68  56  65 W13G23    29.85R
ROME           MOSUNNY   67  57  70 W14       29.84S
ELMIRA         SUNNY     67  33  28 W9G16     29.89S
BINGHAMTON     SUNNY     63  55  75 NW9       29.89S
MONTICELLO     MOSUNNY   66  53  63 NW9       29.91R
$$

NYZ026>034-041>043-087-231500-
NORTH


CITY           SKY/WX    TMP DP  RH WIND       PRES   REMARKS
WATERTOWN      MOSUNNY   67  57  70 W16G24    29.81R
FORT DRUM      NOT AVBL
OGDENSBURG     FAIR      68  56  65 SW12G18   29.77S
MASSENA        MOSUNNY   66  54  65 W16G25    29.76S
SARANAC LAKE   CLOUDY    59  52  77 W9G18     29.80R
PLATTSBURGH    PTSUNNY   68  52  56 W6G17     29.75R
$$

NYZ001>004-010>016-019>021-085-231500-
WEST


CITY           SKY/WX    TMP DP  RH WIND       PRES   REMARKS
NIAGARA FALLS  SUNNY     69  52  54 W13       29.87S
BUFFALO        MOSUNNY   68  54  60 W14       29.88S
DUNKIRK        SUNNY     69  54  58 W10       29.91S
JAMESTOWN      MOSUNNY   64  54  68 W10       29.95R
WELLSVILLE     PTSUNNY   64  55  72 W14G20    29.95S
ROCHESTER      MOSUNNY   67  55  65 W10       29.88R
PENN YAN       SUNNY     67  50  54 W9G16     29.89S
$$

             KEY
       WCI = WIND CHILL INDEX
       VSB = VISIBILITY
       HX  = HEAT INDEX
$$



USA.gov is the U.S. government's official web portal to all federal, state and local government web resources and services.